Manchester, NH

10:59 AM EDT on April 25, 2017 (GMT -0400)
Manchester

Weather History for KMHT - March, 2013

Change the Weather History Date:

Thursday, March 28, 2013

  Actual Average Record
Temperature  
Mean Temperature 42 °F 40 °F  
Max Temperature 50 °F 49 °F 84 °F (1998)
Min Temperature 37 °F 31 °F 11 °F (1974)
Degree Days  
Heating Degree Days 22 25  
Month to date heating degree days 824  
Since 1 July heating degree days 5487  
Cooling Degree Days 0 0  
Month to date cooling degree days 0  
Year to date cooling degree days 0  
Moisture  
Dew Point 30 °F    
Average Humidity 64    
Maximum Humidity 89    
Minimum Humidity 42    
Precipitation  
Precipitation 0.00 in 0.17 in 3.80 in (2005)
Month to date precipitation 3.80  
Year to date precipitation 9.60  
Snow  
Snow 0.00 in - - ()
Month to date snowfall  
Since 1 July snowfall  
Snow Depth -    
Sea Level Pressure  
Sea Level Pressure 29.98 in    
Wind  
Wind Speed 7 mph (NNW)    
Max Wind Speed 13 mph    
Max Gust Speed 16 mph    
Visibility 10 miles    
Events Rain    
T = Trace of Precipitation, MM = Missing Value Source: NWS Daily Summary

Daily Weather History Graph

Daily Weather History Graph

Search for Another Location

Airport or City:

Trip Planner

Search our weather history database for the weather conditions in past years. The results will help you decide how hot, cold, wet, or windy it might be!

Date:

Astronomy

Mar. 28, 2013 Rise Set
Actual Time 6:34 AM EDT 7:07 PM EDT
Civil Twilight 6:06 AM EDT 7:36 PM EDT
Nautical Twilight 5:32 AM EDT 8:09 PM EDT
Astronomical Twilight 4:57 AM EDT 8:44 PM EDT
Moon 8:59 PM EDT (3/28) 6:57 AM EDT (3/28)
Length of Visible Light 13h 30m
Length of Day
12h 33m
Full, 98% of the Moon is Illuminated
Mar 28
Full
Apr 3
Last Quarter
Apr 10
New
Apr 18
First Quarter
Apr 25
Full

Hourly Weather History & Observations

Time (EDT) Temp. Windchill Dew Point Humidity Pressure Visibility Wind Dir Wind Speed Gust Speed Precip Events Conditions
12:53 AM 39.0 °F 32.8 °F 32.0 °F 76% 29.92 in 10.0 mi NNW 9.2 mph - 0.00 in   Overcast
1:53 AM 37.9 °F 32.1 °F 33.1 °F 83% 29.92 in 7.0 mi NNW 8.1 mph - 0.00 in Rain Light Rain
2:53 AM 37.0 °F 31.0 °F 34.0 °F 89% 29.92 in 5.0 mi NNW 8.1 mph - 0.00 in Rain Light Rain
3:53 AM 37.9 °F 32.1 °F 34.0 °F 86% 29.92 in 7.0 mi NNW 8.1 mph - 0.00 in Rain Light Rain
4:53 AM 37.0 °F 32.4 °F 33.1 °F 86% 29.92 in 10.0 mi NW 5.8 mph - 0.00 in   Scattered Clouds
5:53 AM 37.0 °F 32.4 °F 33.1 °F 86% 29.94 in 10.0 mi NNW 5.8 mph - N/A   Overcast
6:53 AM 37.0 °F - 33.1 °F 86% 29.95 in 10.0 mi Calm Calm - N/A   Mostly Cloudy
7:53 AM 37.9 °F 33.5 °F 33.1 °F 83% 29.97 in 10.0 mi NNW 5.8 mph - N/A   Mostly Cloudy
8:53 AM 39.9 °F 34.5 °F 33.1 °F 77% 29.98 in 10.0 mi North 8.1 mph - N/A   Overcast
9:53 AM 41.0 °F 39.0 °F 33.1 °F 73% 29.99 in 10.0 mi Variable 3.5 mph - N/A   Overcast
10:53 AM 44.1 °F 40.8 °F 30.9 °F 60% 29.99 in 10.0 mi Variable 5.8 mph - N/A   Overcast
11:53 AM 46.9 °F - 28.0 °F 48% 29.99 in 10.0 mi Variable 4.6 mph - N/A   Mostly Cloudy
12:53 PM 48.9 °F - 27.0 °F 43% 29.97 in 10.0 mi NW 4.6 mph - N/A   Mostly Cloudy
1:53 PM 48.0 °F - 28.9 °F 48% 29.97 in 10.0 mi NNW 5.8 mph - 0.00 in Rain Light Rain
2:53 PM 48.0 °F - 26.1 °F 42% 29.96 in 10.0 mi NNW 9.2 mph - 0.00 in   Overcast
3:53 PM 46.9 °F - 30.0 °F 52% 29.98 in 10.0 mi NNE 12.7 mph - 0.00 in Rain Light Rain
4:53 PM 46.9 °F - 28.9 °F 50% 29.99 in 10.0 mi NNW 10.4 mph 16.1 mph 0.00 in   Overcast
5:53 PM 48.0 °F - 26.1 °F 42% 29.99 in 10.0 mi NNW 10.4 mph - N/A   Overcast
6:53 PM 46.9 °F - 28.0 °F 48% 30.01 in 10.0 mi NNW 5.8 mph - N/A   Overcast
7:53 PM 46.0 °F - 28.9 °F 51% 30.02 in 10.0 mi Calm Calm - N/A   Overcast
8:53 PM 45.0 °F 42.6 °F 28.9 °F 53% 30.04 in 10.0 mi NW 4.6 mph - N/A   Overcast
9:53 PM 45.0 °F - 28.9 °F 53% 30.04 in 10.0 mi Calm Calm - N/A   Overcast
10:53 PM 44.1 °F 42.5 °F 28.9 °F 55% 30.05 in 10.0 mi NW 3.5 mph - N/A   Overcast
11:53 PM 42.1 °F 40.2 °F 28.9 °F 60% 30.04 in 10.0 mi NNW 3.5 mph - N/A   Overcast